Погода в Стерлитамаке

Хотите узнать прогноз погоды в Стерлитамаке? Тогда Вам сюда: Погода в Стерлитамаке

Поиск расширенной информации на нашем сайте:

Полезная информация:

Новости сайта



02.01.2020
Опубликован Долгосрочный прогноз погоды по городам России и ближнего зарубежья на январь 2020 года.
Карты: Прогноз на январь и февраль 2020 года, Сравнение прогнозируемой аномалии приземной температуры воздуха на январь 2020 года по разным моделям.




Погода в Стерлитамаке - сегодня

Время (UTC), дата Ветер
(°,м/с) 
Видим.   Явления Облачность Т
(°С)
Тd
(°С)
f(%) Тe
(°С)
Pmin
(гПа)
dP
(гПа)
Po
(мм)
O2
(г/м3)
Тmin Tmax R s Состояние
почвы
00 16.01.22 210 (ЮЗ) 3{11}  4000 м  слаб. ливневой снег  10/4 300 м кучево-дожд., средняя 
[Cb cap|As op]
-10.4 -14.5 72 -13  987.2  1.7  728  306           
03 16.01.22 210 (ЮЗ) 4000 м  слаб. ливневой снег  10/8 600 м кучево-дожд., средняя 
[Cb cap|As op]
-12.1 -16.2 71 -14    1.4  729  308  -12.1    0.3  50  равномерный
сухой снег
100% 
06 16.01.22 230 (ЮЗ) 4000 м  слаб. снег{ливн. осадки}  9/3 600 м средняя 
[Sc|Ac As]
-13.7 -18.1 69 -17  992.1  731  311  -13.7         
09 16.01.22 220 (ЮЗ) 4000 м  слаб. снег  10/0 средняя 
[As op]
-14 -17.8 73 -16  993.9  1.7  732  312           
12 16.01.22 210 (ЮЗ) 4000 м  слаб. снег  9/4 600 м средняя 
[Sc|As op]
-14 -17.2 77 -16  995.6  1.7  733  313           
15 16.01.22 220 (ЮЗ) 4000 м  слаб. снег  9/0 средняя 
[As op]
-12.9 -15.8 79 -13  998  2.4  735  312    -12.1  0.6     
18 16.01.22 230 (ЮЗ) 4000 м  слаб. снег  10/0 средняя 
[As op]
-12.3 -15 80 -12  1000.3  2.3  737  312           
21 16.01.22 230 (ЮЗ) 4000 м  слаб. снег  10/0 средняя 
[As op]
-9.8 -12.6 80 -10  1002.6  2.4  739  310           
00 17.01.22 210 (ЮЗ) 4000 м  слаб. снег  10/0 средняя 
[As op]
-10.2 -13 80 -12  1004.8  2.2  740  311           
03 17.01.22 230 (ЮЗ) 10 км  {снег}  8/3 600 м средняя 
[Sc|As trans]
-8.5 -11.5 79 -10  1006.9  2.2  742  310  -12.9    0.6  50  равномерный
сухой снег
100% 
06 17.01.22 220 (ЮЗ) 10 км  {снег}  9/0 средняя 
[Ac As]
-7.8 -11.5 75 -9  1009.3  2.4  744  310           
09 17.01.22 220 (ЮЗ) 10 км    9/9 600 м средняя 
[Sc|Ac As]
-6.6 -10.6 73 -9  1010.2  0.9  744  308           
12 17.01.22 210 (ЮЗ) 10 км    9/0 средняя 
[Ac trans]
-7.6 -11.4 74 -11  1011.4  1.1  745  310           
15 17.01.22 220 (ЮЗ) 10 км  позёмок  9/0 средняя 
[Ac trans]
-8.2 -11.7 76 -12  1012.5  1.1  746  311    -6.3       
18 17.01.22 200 (Ю) 4{10}  10 км  позёмок  9/0 средняя 
[Ac trans]
-8.8 -11.8 79 -13  1013.5  0.9  747  312           
21 17.01.22 220 (ЮЗ) 3{10}  10 км    10/0 средняя 
[Ac As]
-8.7 -12.1 76 -12  1014.8  1.3  748  312           
00 18.01.22 220 (ЮЗ) 3{10}  10 км  позёмок  10/3 600 м средняя 
[Sc|Ac As]
-7.4 -11.1 75 -10  1015.4  0.7  748  311           
03 18.01.22 190 (Ю) 3{11}  10 км    10/0 средняя 
[Ac As]
-7.2 -10.9 75 -10  1015.9  0.5  749  311  -9.2      48  равномерный
сухой снег
100% 
06 18.01.22 190 (Ю) 96  2500 м  слаб. снег  10/10 2000 м 
[Ns]
-6.4 -9.6 78 -22  1016.4  0.5  749  310           
09 18.01.22 200 (Ю) 4{12}  4000 м  позёмок{снег}  10/0 средняя 
[Ac As]
-5 -9.2 72 -8  1017.2  0.9  750  309           
12 18.01.22 200 (Ю) 4-11{12}  4000 м  слаб. снег  10/0 средняя 
[As op]
-5.2 -8.8 76 -8  1017.9  0.7  750  309           
15 18.01.22 200 (Ю) 4{11}  4000 м  слаб. снег  10/8 300 м средняя 
[Frnb|As op]
-4.7 -8.1 77 -8  1018.6  0.7  751  309    -4.6  0.0     
18 18.01.22 190 (Ю) 4{13}  10 км  позёмок{снег}  10/8 300 м средняя 
[Frnb|As op]
-4.7 -8.1 77 -8  1019.5  0.9  751  309           
21 18.01.22 190 (Ю) 2{11}  10 км  позёмок  9/3 300 м средняя 
[Frnb|As trans]
-6 -9.3 77 -7  1021.1  1.5  753  311           
00 19.01.22 200 (Ю) 10 км    10/0 средняя 
[As op]
-7 -10.1 79 -10  1022.4  1.2  753  313           
Время (UTC), дата Ветер
(°,м/с) 
Видим.   Явления Облачность Т
(°С)
Тd
(°С)
f(%) Тe
(°С)
Pmin
(гПа)
dP
(гПа)
Po
(мм)
O2
(г/м3)
Тmin Tmax R s Состояние
почвы

Для получения пояснительной информации подведите курсор к названию столбца.

ПОГОДА в Стерлитамаке - архив

Всё, что Вы хотите узнать о погоде в Стерлитамаке - удобно и подробно!

Выберите нужную дату (начиная с 1 января 2019* года) и нажмите кнопку "Найти".
Будут отображены архивные сводки погоды по пункту Стерлитамак, начиная с указанной даты.


Отображать данные в формате CSV (для использования в таблицах Excel)


Внимание! Наш архив погоды предназначен исключительно для личного некоммерческого использования в познавательных целях. Если Вам необходимы официальные справки о состоянии погоды (для производственных, юридических, коммерческих и т.п. целей), обращайтесь в органы Росгидромета.

*Примечание: данная дата относится к архиву по метеостанциям СССР (Россия, СНГ, Балтия).
Архив по метеостанциям Зарубежной Европы и Азии (кроме Китая) хранится 10 дней, по другим регионам земного шара (Китай, Африка, Америка, Австралия, Океания) - 1 день.

Стерлитамак - район местоположения метеостанции


Название, широта, долгота, высота метеостанции:
Стерлитамак 53.6°ш. 56°д. 137 м над ур. моря [Российская Федерация]

Дополнительная информация

В oтличие oт бoльшинства пoгoдных сайтoв мы публикуем пoдрoбную метеoинфoрмацию в детальнoм прoфессиoнальнoм фoрмате.

Характеристики температуры и влажнoсти вoздуха измеряются на высoте 2 м в тени вдали oт зданий и деревьев.
Скoрoсть ветра измеряется на высoте 10 м (на урoвне рoста челoвека скoрoсть ветра ниже в 1.5-2 раза). Если метеoстанция нахoдится в гoрoде или в лесу, тo скoрoсть ветра занижена на 2-4 м/с пo сравнению с oткрытым местoм. Скoрoсть ветра над акватoриями крупных рек и oзёр, а также на вершинах хoлмoв на 2-5 м/с выше, чем в oбычных услoвиях.
Атмoсфернoе давление в разных тoчках местнoсти мoжет значительнo oтличаться oт давления на метеoстанции, в зависимoсти oт услoвий рельефа (при пoдъёме на 10 м давление пoнижается примернo на 1 мм рт.ст.).